Погода в Приладожском

Россия / Санкт-Петербург и Ленинградская область     59°52′31″N   31°19′30″E
темп.,
°C
ветер,
м/с
пор.,
м/с
влажн.,
%
обл.,
%
осадки,
мм/ч
давл.,
гПа
погр.,
м
4 марта, чт
чт400:00+1ссз61292100 1.5 1000733
03:00−3зсз598283 1.5 1002253
06:00−5зсз47890 0.0 1001186
09:00−6сз369438 0.0 1002218
12:00−4ссз4689100 0.1 1002562
15:00−4ссз4689100 0.4 1003508
18:00−4ссз3595100 0.4 1003213
21:00−6сз368993 0.6 1004107
5 марта, пт
пт500:00−6зсз369190 0.0 1004159
03:00−7зсз359489 0.0 1006138
06:00−8сз359481 0.1 1007169
09:00−8сз479388 0.1 1008326
12:00−6ссз4686100 0.1 1011590
15:00−5ссз4583100 0.2 1012678
18:00−7с238891 0.0 101335
21:00−9сз349182 0.1 101549
6 марта, сб
сб600:00−8зсз349176 0.0 101776
03:00−10зсз349560 0.0 101757
06:00−10з239514 0.0 101744
09:00−10зюз35927 0.0 1016118
12:00−5юз58770 0.0 1013367
15:00−3юз7126750 0.0 1009950
18:00−3юз91693100 0.9 1003921
21:00−2зюз91794100 3.4 996982
7 марта, вс
вс700:00−1зюз81596100 2.4 992805
03:00−4сз5991100 5.8 991627
06:00−9з478767 0.1 991158
09:00−10зюз487567 0.1 991261
12:00−6зюз478481 0.1 990722
15:00−6з348190 1.3 989639
18:00−7ссв4693100 0.7 991310
21:00−9с61284100 0.8 994384
8 марта, пн
пн800:00−10ссз5108354 0.0 998318
03:00−10ссз8129277 0.5 1001819
06:00−12с71292100 0.4 1003764
09:00−12с71191100 0.6 1006788
12:00−13с81189100 0.3 1009781
15:00−12с71089100 0.5 1012804
18:00−12с61090100 0.2 1014559
21:00−13ссв51091100 0.3 1017299